Temperature
33 32 32 33 33 34 34 34 33 33 34 33 33 32 32 32 31 30 29 28 27 26 25 25 24 23 22 21 21 20 20 20 20 20 19 19 19 19 19 19 19 19 19 18
33 33 34 35 34 34 34 33 33 33 34 33 33 32 33 33 32 31 30 29 28 27 26 25 24 23 22 22 21 21 20 20 20 20 20 19 19 19 19 19 19 19 19 18
33 34 35 35 34 34 34 34 33 33 33 33 32 31 32 32 32 31 31 30 29 27 26 25 24 23 23 22 21 21 21 20 20 20 20 20 19 19 19 19 19 19 18 18
33 35 35 35 34 34 33 34 34 33 32 32 32 30 31 31 32 32 31 30 29 28 27 25 24 24 23 22 22 21 21 21 20 20 20 20 19 19 19 19 19 19 18 18
33 34 34 34 35 35 34 34 34 33 33 32 33 31 31 32 31 32 32 31 30 29 27 26 25 24 23 23 22 21 21 21 21 20 20 20 19 19 19 19 19 19 19 18
34 35 35 35 35 35 35 34 33 33 32 31 32 32 31 32 32 32 32 31 30 29 28 26 25 24 23 23 22 22 21 21 21 20 20 20 20 19 19 19 19 19 19 19
33 34 35 36 34 35 34 32 31 30 30 31 33 32 32 33 33 33 32 32 31 29 28 27 26 25 24 23 23 22 22 21 21 20 20 20 20 19 19 19 19 19 19 19
32 33 34 35 34 33 33 32 30 30 30 31 33 32 32 34 34 33 33 32 31 30 29 27 26 25 24 24 23 22 22 21 21 20 20 20 20 20 19 19 19 19 19 19
32 33 35 35 35 35 33 33 33 32 31 31 32 32 32 33 33 33 33 32 31 30 29 28 27 26 25 24 23 23 22 21 21 21 20 20 20 20 19 19 19 19 19 19
33 31 33 35 35 35 35 34 33 32 30 30 31 31 31 31 32 33 32 32 31 30 29 28 27 26 25 24 24 23 22 22 21 21 21 20 20 20 20 20 19 19 19 19
33 31 32 33 33 33 34 34 33 32 31 30 30 30 33 32 32 33 32 31 31 30 29 28 27 26 25 25 24 23 22 22 21 21 21 20 20 20 20 20 19 19 19 19
32 32 31 32 34 35 34 34 33 31 30 31 30 30 33 33 33 33 32 31 30 30 29 27 26 26 25 25 24 23 22 22 21 21 21 20 20 20 19 19 19 19 19 19
31 31 29 30 32 33 33 33 33 33 32 31 31 31 33 33 33 33 32 31 30 29 28 27 26 25 24 24 24 23 22 22 21 21 21 20 20 20 19 19 19 19 19 19
30 30 30 29 31 32 32 33 33 33 32 31 31 31 32 32 32 32 31 30 29 28 27 26 25 24 24 23 23 23 22 22 21 21 21 20 20 20 20 19 19 19 19 19
31 29 30 31 32 32 32 32 33 32 32 32 32 32 32 32 31 31 31 30 29 28 27 25 25 24 23 23 23 22 22 21 21 21 20 20 20 20 20 19 19 19 19 18
29 29 29 29 31 31 31 32 32 32 32 32 32 32 32 31 31 30 30 29 29 27 26 25 24 24 23 23 22 22 22 21 21 21 20 20 20 20 20 20 19 19 19 19
29 27 27 28 30 30 30 31 32 32 33 32 32 32 32 31 31 30 29 29 28 27 26 25 24 23 23 22 22 22 21 21 21 20 20 20 20 20 20 19 19 19 19 18
27 26 27 28 28 27 30 32 32 32 32 33 32 32 32 31 30 29 29 28 27 27 26 25 24 23 22 22 22 21 21 21 21 20 20 20 20 19 19 19 19 19 19 18
28 26 27 27 27 28 30 31 31 31 30 32 31 31 31 30 29 28 28 27 26 26 25 25 24 23 22 22 21 21 21 21 20 20 20 20 20 19 19 19 19 18 18 18
28 27 26 26 26 27 29 31 31 31 29 30 31 30 30 29 29 27 27 26 25 25 25 24 24 23 22 21 21 21 21 20 20 20 20 20 19 19 19 19 18 18 18 18
26 25 25 26 26 27 29 30 30 28 27 28 29 29 28 28 27 26 26 25 25 24 24 24 23 23 22 21 21 20 20 20 20 19 19 19 19 19 19 18 18 18 18 17
26 26 25 25 25 26 29 29 28 26 26 27 27 27 27 26 26 25 24 24 24 23 23 23 22 22 22 21 21 20 20 20 19 19 19 19 18 18 18 18 18 18 17 17
26 26 26 26 26 26 27 26 25 25 25 25 25 25 25 25 24 24 23 23 23 22 22 22 22 21 21 21 20 20 20 19 19 19 18 18 18 18 17 18 18 17 17 17
26 26 26 25 26 26 26 25 25 24 25 24 24 24 24 24 23 23 22 22 22 21 21 21 21 20 20 20 20 20 19 19 18 18 18 17 17 17 17 17 17 17 17 17
24 24 24 24 25 25 25 24 24 24 24 24 24 24 23 23 22 22 21 21 21 20 20 20 20 20 20 20 19 19 19 18 18 18 17 17 17 17 17 17 17 17 17 17
23 23 23 23 24 24 24 23 23 23 23 23 23 23 22 22 21 21 21 20 20 20 19 19 19 19 19 19 19 18 18 18 18 17 17 17 17 17 16 17 17 17 17 17
Wind_Speed
10 9 8 8 9 8 4 2 4 5 4 4 6 8 11 12 10 11 11 10 10 10 11 10 9 10 10 8 7 5 5 4 2 2 1 2 2 2 2 3 5 4 3 2
10 11 11 10 8 7 4 3 3 4 5 4 5 5 7 11 11 10 11 11 11 10 11 11 9 8 10 9 7 6 5 5 3 3 2 1 2 2 3 3 4 4 3 2
12 8 8 9 8 7 6 4 3 4 3 4 4 4 6 8 9 10 10 11 12 12 12 11 11 9 10 10 8 7 6 5 4 3 3 2 2 1 2 4 3 3 3 3
10 9 8 8 8 9 5 3 3 4 5 5 6 3 6 8 9 11 11 11 11 12 12 12 11 10 10 10 9 7 7 5 4 3 2 3 3 2 3 3 3 3 2 3
10 12 12 10 9 7 5 3 4 6 8 8 6 3 6 10 10 11 11 11 11 12 13 13 12 10 10 10 10 9 8 6 5 3 3 2 2 2 3 3 3 3 2 2
11 11 11 10 8 6 5 5 7 7 9 8 6 4 5 7 9 9 10 11 12 12 13 13 12 11 10 10 10 10 9 7 6 5 4 3 2 1 2 2 2 2 2 2
13 13 11 9 9 8 8 7 6 7 8 7 6 4 3 6 8 9 10 11 12 12 13 13 13 12 11 10 10 10 10 8 7 6 5 5 4 3 3 2 2 1 2 2
13 13 13 11 11 8 9 9 8 7 6 4 5 4 5 5 6 8 11 11 11 12 12 13 13 13 12 11 10 10 10 9 8 7 5 4 4 4 2 2 1 1 1 2
9 9 9 10 10 10 10 11 12 10 10 6 4 4 6 7 8 8 10 11 11 11 12 12 12 13 13 12 11 11 11 9 8 7 6 5 5 3 2 2 2 1 1 2
9 7 9 10 10 12 12 11 8 8 6 8 4 5 5 9 8 8 8 9 9 10 12 12 10 10 10 11 11 11 11 10 9 8 7 7 6 4 3 2 2 1 1 0
11 9 11 11 12 12 11 11 8 6 6 8 5 2 3 6 7 8 9 9 9 7 9 10 9 9 9 10 11 11 11 10 9 8 7 5 6 6 5 4 3 3 2 2
10 10 11 12 11 11 11 11 10 8 6 8 7 2 5 4 5 7 8 9 8 7 8 9 9 8 8 7 8 9 10 10 9 8 7 6 6 6 6 5 4 4 4 3
7 8 10 12 12 12 11 11 12 11 9 9 9 4 5 3 3 5 7 9 8 7 8 9 8 7 6 6 6 7 7 8 8 8 8 7 6 6 5 5 4 4 4 3
6 9 11 12 9 8 11 12 12 12 9 9 10 5 4 4 3 5 5 6 8 8 8 9 8 7 6 5 5 5 6 7 6 6 6 6 5 5 5 4 4 5 4 4
8 11 13 14 14 12 12 12 13 13 12 12 10 7 5 5 4 5 6 6 7 7 8 8 8 7 7 6 5 5 5 5 5 5 5 5 5 5 5 5 5 5 5 5
8 9 12 15 15 14 14 14 14 14 13 13 11 7 1 4 4 5 5 5 7 7 7 8 8 7 7 6 5 4 4 4 4 5 5 5 5 5 5 5 5 5 5 4
9 8 11 14 15 15 17 15 15 13 13 13 12 7 5 4 4 4 4 4 4 5 6 6 7 6 6 6 5 5 5 5 5 5 5 4 4 4 5 6 5 5 5 4
8 8 9 13 14 17 13 11 12 13 12 10 8 5 3 2 4 4 4 5 4 3 4 6 6 6 5 5 5 5 5 5 5 5 4 4 5 5 5 4 5 5 4 4
9 8 10 12 15 16 13 11 10 9 9 7 6 3 2 1 2 2 3 4 4 4 3 4 5 6 6 5 4 4 5 5 4 4 4 4 5 4 4 5 5 4 4 4
11 9 11 12 14 15 10 8 7 7 8 5 4 2 1 2 4 1 3 5 5 4 3 3 4 4 6 5 5 5 5 4 4 4 3 4 4 4 4 4 4 4 4 4
13 13 15 15 15 12 7 5 6 9 4 2 3 1 0 1 2 4 5 5 4 3 2 3 3 3 4 5 5 5 5 4 4 3 3 3 3 3 4 3 3 3 4 4
14 13 14 14 15 11 3 4 2 2 4 5 5 4 3 4 4 4 4 4 4 3 2 1 2 2 4 5 5 5 4 3 3 3 3 3 3 4 4 3 3 4 4 4
10 8 7 6 6 0 4 5 5 3 3 3 4 4 3 3 2 2 2 2 2 2 3 1 0 1 2 3 4 4 4 3 3 4 4 3 4 4 3 4 5 5 5 6
5 3 4 3 3 1 0 2 2 2 1 1 2 2 2 2 2 3 2 2 2 2 3 3 1 2 2 3 4 4 3 4 4 5 4 4 4 5 5 4 5 6 6 6
5 4 6 6 4 4 3 1 1 1 2 2 2 3 2 2 1 1 1 1 2 3 3 3 3 3 3 4 4 4 4 5 5 5 5 6 6 6 5 4 3 5 4 4
6 5 5 5 3 4 3 1 2 3 3 3 3 3 3 2 2 2 2 2 2 3 3 4 4 4 4 4 5 5 5 6 6 6 6 6 6 5 6 5 4 2 3 3
Wind_Direction
215 222 220 214 219 234 238 172 130 132 148 159 138 145 159 163 164 159 159 160 161 160 157 152 150 147 143 139 133 131 132 128 129 109 112 118 122 118 113 110 106 103 91 84
216 219 224 218 218 236 233 191 154 146 161 167 147 149 163 165 170 164 163 163 158 154 153 151 152 156 149 144 143 146 146 146 154 147 157 146 124 133 129 105 106 110 99 82
226 225 214 213 218 236 240 218 193 182 175 187 179 171 170 171 170 167 166 165 163 162 160 159 164 164 159 156 157 156 149 150 160 159 158 141 134 154 111 113 121 118 118 104
231 235 235 229 224 236 247 262 240 229 229 231 212 200 177 182 180 175 171 170 168 165 163 163 167 166 165 163 160 149 149 151 158 164 171 175 155 149 128 129 130 130 113 114
221 227 234 231 232 234 250 277 277 260 263 256 227 210 181 178 181 178 173 171 170 166 165 165 167 166 167 168 162 155 150 154 162 170 162 182 160 155 137 137 139 140 135 123
237 230 233 237 235 236 256 253 254 255 255 251 245 227 172 173 176 173 171 171 168 166 163 162 164 162 169 170 165 160 153 157 164 173 171 170 175 151 132 140 141 163 148 140
233 231 228 227 229 226 235 252 251 241 238 237 224 225 145 151 153 161 170 169 164 165 165 164 165 166 170 170 167 158 154 161 169 175 176 172 178 182 185 194 166 184 144 126
225 221 217 217 227 231 228 236 249 265 260 241 218 204 143 140 150 154 154 156 161 165 166 166 167 169 172 171 167 161 156 163 170 173 174 174 180 197 185 180 189 170 102 112
236 228 211 213 226 237 236 234 245 259 269 263 214 172 151 154 160 161 157 159 167 164 160 165 171 170 171 172 170 165 158 162 168 172 170 175 186 197 189 163 184 185 177 165
251 255 244 225 222 232 248 254 250 252 271 276 232 201 175 160 167 165 167 163 156 161 164 162 160 160 164 168 166 164 163 166 171 176 183 183 181 185 192 186 182 184 156 112
242 248 246 233 226 229 229 242 252 275 276 272 277 285 140 163 174 169 168 159 156 160 153 149 150 152 156 160 162 162 164 166 172 179 184 180 176 180 183 190 188 191 188 181
237 247 250 240 231 236 244 247 251 251 258 275 278 252 137 156 171 161 154 150 151 159 151 144 144 147 149 156 160 163 166 171 175 175 176 182 179 181 185 187 184 188 189 189
246 246 243 237 226 222 238 245 248 256 256 255 261 221 144 138 152 140 141 143 137 138 140 140 141 143 148 153 150 158 165 171 173 174 180 183 181 182 186 189 185 188 187 193
256 248 250 252 254 234 228 238 245 248 253 255 257 232 161 168 153 130 128 134 142 143 139 138 138 141 146 148 149 157 169 169 170 169 176 177 178 180 184 190 188 191 192 202
241 245 249 255 263 261 246 242 241 245 252 257 265 260 204 163 134 131 136 150 146 145 142 140 145 147 155 158 157 164 165 160 165 171 178 176 177 179 191 198 197 189 195 202
237 258 258 256 254 259 260 256 248 244 248 252 257 266 198 145 142 140 144 151 146 151 158 152 151 148 154 158 163 168 162 159 159 174 178 172 181 187 192 198 198 190 197 197
228 245 253 255 252 250 248 251 254 251 244 251 254 245 208 171 144 143 141 149 152 146 149 144 149 151 157 161 163 172 172 165 172 179 181 181 189 195 195 203 197 199 200 198
239 245 247 252 255 249 251 250 256 259 253 254 260 249 237 194 165 156 147 135 134 134 139 144 153 153 157 160 168 175 174 171 177 182 187 192 197 198 199 202 203 200 199 200
232 235 245 246 247 248 248 245 253 257 256 264 268 274 275 224 132 128 121 113 111 119 118 137 152 163 162 166 168 170 171 173 180 187 194 200 202 202 201 205 209 204 206 209
221 223 238 243 247 249 245 233 241 247 245 268 271 260 285 273 237 158 91 98 100 102 102 131 151 161 157 161 164 177 184 186 195 199 201 204 203 207 217 213 205 202 205 218
213 215 227 241 246 251 263 249 231 236 243 342 333 354 46 317 54 88 78 82 86 94 95 123 137 146 155 161 167 186 195 196 197 196 202 208 200 208 218 206 201 206 213 219
215 218 221 234 243 244 259 240 225 62 47 32 12 17 51 66 84 91 79 71 62 57 66 98 132 147 158 161 174 197 205 198 189 189 197 198 196 219 220 197 205 213 214 216
227 234 232 231 231 44 39 61 77 65 55 30 14 25 42 56 57 77 89 69 35 15 8 358 2 145 164 173 183 202 207 187 188 190 198 198 197 214 205 203 213 217 214 217
232 256 258 255 196 206 179 74 62 23 336 335 338 345 355 356 25 30 23 37 21 354 340 332 311 250 212 195 195 205 200 190 191 199 201 199 203 214 210 211 217 223 217 217
293 282 254 253 245 263 245 286 298 298 297 300 318 311 307 316 333 350 347 355 329 311 306 301 285 265 233 204 205 208 202 196 203 208 210 216 219 220 216 216 230 234 234 229
265 268 254 260 264 261 268 302 313 295 286 290 295 300 301 312 315 311 314 321 311 300 297 286 280 274 253 227 220 215 205 201 205 214 218 226 225 222 221 211 222 258 237 216
Height
1475 1477 1479 1475 1470 1469 1468 1473 1480 1478 1474 1477 1481 1485 1486 1490 1493 1497 1502 1506 1510 1513 1516 1518 1521 1523 1524 1525 1527 1528 1529 1530 1531 1532 1532 1533 1534 1535 1535 1536 1536 1536 1537 1537
1474 1476 1469 1466 1467 1467 1469 1477 1478 1476 1472 1476 1482 1484 1483 1486 1490 1494 1498 1503 1507 1511 1515 1517 1520 1522 1523 1525 1526 1527 1528 1529 1531 1532 1533 1534 1535 1535 1536 1536 1537 1537 1537 1538
1473 1467 1463 1465 1467 1470 1470 1473 1476 1479 1476 1476 1483 1490 1486 1485 1488 1492 1495 1500 1504 1508 1512 1515 1518 1521 1523 1524 1525 1527 1528 1529 1530 1532 1533 1534 1535 1536 1537 1537 1537 1537 1537 1538
1467 1463 1463 1466 1468 1469 1477 1467 1470 1475 1483 1487 1483 1502 1490 1485 1486 1488 1492 1497 1501 1505 1509 1513 1516 1519 1521 1523 1524 1526 1527 1529 1530 1531 1533 1534 1535 1536 1537 1537 1537 1537 1538 1538
1467 1463 1465 1467 1466 1466 1470 1466 1470 1474 1480 1485 1481 1493 1492 1482 1486 1485 1488 1493 1498 1502 1506 1510 1514 1517 1520 1522 1523 1525 1526 1528 1529 1530 1532 1533 1535 1536 1536 1537 1537 1537 1537 1538
1461 1459 1460 1461 1461 1463 1465 1469 1473 1475 1482 1498 1484 1490 1494 1481 1481 1481 1484 1489 1495 1500 1504 1508 1512 1515 1518 1520 1522 1524 1525 1526 1528 1529 1531 1532 1533 1535 1535 1536 1537 1537 1537 1537
1467 1460 1457 1459 1464 1464 1468 1482 1497 1505 1504 1497 1476 1483 1486 1472 1472 1477 1482 1486 1492 1497 1502 1506 1510 1513 1516 1519 1521 1522 1523 1525 1527 1528 1530 1531 1532 1533 1534 1535 1536 1536 1536 1536
1474 1473 1458 1457 1463 1469 1470 1478 1501 1511 1506 1492 1478 1486 1477 1469 1471 1474 1479 1484 1489 1495 1499 1503 1507 1511 1514 1516 1519 1521 1522 1524 1525 1527 1528 1529 1531 1532 1533 1534 1534 1535 1535 1535
1469 1469 1454 1455 1457 1461 1470 1472 1470 1483 1488 1493 1487 1480 1473 1467 1470 1474 1478 1482 1487 1492 1497 1501 1505 1508 1511 1514 1517 1519 1520 1522 1524 1526 1527 1528 1529 1531 1532 1533 1533 1534 1534 1534
1461 1472 1460 1455 1457 1458 1460 1462 1470 1482 1501 1505 1492 1487 1483 1476 1473 1473 1476 1480 1485 1490 1494 1499 1503 1506 1509 1512 1515 1517 1519 1521 1523 1524 1526 1527 1528 1529 1530 1531 1532 1532 1533 1533
1459 1471 1468 1461 1464 1465 1464 1466 1469 1476 1482 1498 1505 1495 1467 1471 1470 1471 1475 1480 1485 1489 1492 1496 1501 1504 1508 1510 1513 1516 1518 1520 1521 1523 1524 1526 1527 1528 1528 1529 1530 1531 1531 1532
1460 1467 1473 1464 1454 1453 1458 1462 1467 1483 1489 1486 1495 1494 1464 1466 1468 1470 1474 1479 1484 1488 1492 1496 1500 1503 1506 1510 1513 1515 1517 1518 1520 1521 1523 1524 1525 1526 1527 1528 1528 1529 1529 1530
1461 1469 1482 1478 1468 1460 1461 1460 1461 1466 1474 1484 1492 1489 1464 1467 1467 1470 1474 1479 1484 1488 1492 1495 1499 1503 1505 1509 1511 1513 1515 1517 1519 1520 1521 1523 1524 1525 1525 1526 1527 1527 1527 1528
1465 1469 1477 1484 1473 1463 1466 1463 1461 1466 1477 1481 1479 1478 1469 1469 1469 1472 1476 1479 1483 1488 1491 1495 1498 1502 1505 1508 1510 1512 1514 1515 1517 1518 1520 1521 1522 1523 1524 1525 1525 1525 1526 1526
1464 1471 1469 1467 1461 1459 1460 1462 1461 1465 1467 1475 1472 1469 1467 1468 1470 1474 1478 1481 1484 1488 1491 1494 1497 1500 1504 1506 1509 1510 1512 1513 1515 1516 1518 1519 1520 1521 1522 1523 1523 1523 1523 1524
1465 1471 1471 1470 1462 1460 1462 1460 1459 1461 1462 1465 1466 1468 1463 1467 1470 1475 1478 1481 1483 1488 1491 1494 1497 1499 1502 1505 1507 1509 1510 1511 1513 1514 1515 1516 1518 1518 1519 1520 1520 1521 1521 1522
1467 1474 1478 1477 1466 1465 1472 1461 1459 1459 1457 1460 1466 1465 1463 1466 1470 1474 1478 1481 1484 1487 1490 1492 1495 1498 1501 1503 1505 1507 1508 1510 1511 1513 1514 1515 1516 1516 1517 1517 1518 1518 1518 1519
1470 1475 1477 1477 1476 1488 1466 1451 1453 1456 1455 1455 1457 1459 1462 1466 1470 1474 1477 1480 1483 1487 1489 1492 1494 1497 1499 1501 1503 1505 1507 1508 1509 1510 1511 1512 1513 1513 1514 1514 1515 1515 1516 1516
1466 1473 1477 1478 1480 1475 1460 1453 1454 1459 1461 1457 1459 1461 1464 1467 1471 1475 1477 1480 1483 1486 1488 1491 1493 1496 1498 1499 1501 1503 1504 1505 1507 1508 1508 1509 1510 1511 1511 1511 1512 1512 1513 1513
1464 1469 1477 1477 1483 1482 1463 1452 1453 1458 1467 1460 1461 1463 1466 1468 1473 1477 1478 1480 1482 1485 1488 1490 1492 1494 1496 1498 1499 1501 1502 1503 1504 1505 1505 1506 1507 1507 1508 1508 1509 1509 1509 1510
1468 1471 1476 1477 1477 1467 1454 1453 1455 1471 1472 1464 1464 1466 1469 1471 1475 1479 1480 1482 1483 1485 1487 1489 1491 1493 1494 1496 1497 1498 1499 1500 1501 1502 1503 1504 1504 1504 1505 1505 1505 1506 1506 1507
1463 1467 1471 1472 1477 1472 1455 1455 1461 1468 1466 1467 1468 1469 1471 1473 1476 1478 1480 1482 1484 1485 1486 1488 1490 1491 1492 1493 1494 1495 1496 1497 1498 1499 1500 1500 1501 1501 1502 1502 1502 1502 1503 1503
1454 1457 1458 1463 1466 1462 1461 1462 1466 1468 1469 1470 1471 1473 1474 1475 1477 1478 1481 1482 1484 1484 1486 1487 1488 1489 1490 1490 1491 1492 1493 1494 1495 1496 1496 1497 1497 1498 1498 1498 1498 1499 1499 1500
1454 1455 1457 1460 1460 1461 1463 1465 1467 1469 1471 1472 1473 1474 1475 1476 1477 1479 1480 1482 1483 1484 1485 1485 1486 1486 1486 1487 1487 1488 1489 1490 1491 1492 1492 1493 1494 1494 1495 1495 1495 1496 1496 1496
1458 1457 1458 1462 1462 1463 1464 1467 1468 1469 1471 1472 1473 1474 1475 1476 1477 1479 1480 1481 1482 1482 1483 1483 1483 1483 1483 1483 1483 1484 1485 1486 1487 1488 1489 1489 1490 1490 1491 1491 1491 1492 1492 1493
1460 1461 1463 1464 1463 1464 1466 1467 1469 1470 1471 1472 1473 1474 1474 1476 1477 1478 1479 1479 1480 1480 1480 1480 1480 1480 1479 1479 1479 1480 1480 1481 1482 1483 1484 1485 1486 1486 1486 1486 1486 1487 1488 1489